Location: Litvinovka
(48.6667°N, 34.3500°E)
Time: 11:28:50
(UTC+00:00)

GP-B - Pass Details

Date: 18 September 2020
Orbit: 631 x 635 km, 89.8° (Epoch: 30 October)

Event Time Altitude Azimuth Distance (km) Brightness Sun altitude
Rises 16:40:12 0° 355° (N) 2,947 6.8 -9.3°
Reaches altitude 10° 16:42:30 10° 350° (N) 2,033 6.0 -9.7°
Maximum altitude 16:46:44 44° 278° (W) 880 4.5 -10.3°
Drops below altitude 10° 16:50:57 10° 207° (SSW) 2,014 5.8 -11.0°
Sets 16:53:13 0° 201° (SSW) 2,916 6.6 -11.4°
